Home   Weather   Ramat Gan   Past weeks

Flag for Israel Past Weather in Ramat Gan, Israel — Yesterday and Last 2 Weeks

Now
64 °F

Passing clouds.


Feels Like: 64 °F
Forecast: 58 / 69 °F
Wind: 13 mph from Northwest

Location: Dov Airport

Current Time: Apr 23, 2017 at 9:11:09 pm

Latest Report: Apr 23, 2017 at 7:50 pm


Visibility: N/A

Pressure: 30.07 "Hg

Humidity: 56%

Dew Point: 48 °F

Location of Ramat GanLocation

Past Weather in Ramat Gan — Graph

°F

Ramat Gan Temperature Yesterday

Maximum temperature yesterday: 88 °F (at 2:50 pm)
Minimum temperature yesterday: 70 °F (at 6:00 am)
Average temperature yesterday: 80 °F

High & Low Weather Summary for the Past Weeks

 TemperatureHumidityPressure
High88 °F (Apr 12, 1:50 pm)88% (Apr 12, 5:30 am)30.12 "Hg (Apr 12, 5:30 am)
Low57 °F (Apr 10, 5:50 am)19% (Apr 12, 1:50 pm)29.65 "Hg (Apr 22, 4:50 pm)
Average69 °F64%29.95 "Hg
* Reported Apr 8 7:50 pm — Apr 23 7:50 pm, Ramat Gan, Weather by CustomWeather, © 2017

Note: Actual official high and low records may vary slightly from our data, if they occured in-between our weather recording intervals... More about our weather records

Advertising

Ramat Gan Weather History for the Previous 24 Hours

Scroll right to see more
 ConditionsComfort  
Time TempWeatherWind HumidityBarometerVisibility
7:50 pm
Sun, Apr 23
64 °FPassing clouds.13 mph56%30.07 "HgN/A
6:50 pm64 °FPartly sunny.14 mph60%30.04 "HgN/A
5:50 pm66 °FScattered clouds.16 mph49%30.04 "HgN/A
4:50 pm68 °FScattered clouds.14 mph49%30.04 "HgN/A
3:50 pm68 °FPassing clouds.14 mph49%30.01 "HgN/A
2:50 pm68 °FPassing clouds.14 mph53%30.01 "HgN/A
1:50 pm68 °FScattered clouds.14 mph56%30.04 "HgN/A
12:50 pm68 °FScattered clouds.15 mph60%30.01 "HgN/A
11:50 am68 °FScattered clouds.14 mph60%30.04 "HgN/A
10:50 am68 °FPassing clouds.14 mph64%30.01 "Hg6 mi
9:50 am68 °FBroken clouds.15 mph64%30.01 "Hg5 mi
8:50 am68 °FScattered clouds.12 mph64%29.98 "HgN/A
7:50 am66 °FScattered clouds.10 mph73%29.95 "Hg5 mi
6:50 am66 °FPassing clouds.8 mph73%29.92 "Hg6 mi
5:50 am66 °FPassing clouds.10 mph78%29.89 "Hg6 mi
5:35 am66 °FPassing clouds.12 mph78%29.86 "Hg6 mi
12:11 am73 °FClear.18 mph65%29.68 "Hg10 mi
11:50 pm
Sat, Apr 22
75 °FClear.6 mph65%29.68 "Hg10 mi
10:50 pm72 °FClear.No wind78%29.68 "Hg10 mi
9:50 pm72 °FClear.3 mph83%29.71 "Hg10 mi
Weather by CustomWeather, © 2017

See weather overviewHow to use our weather pages